Location: Cosy Dell
(34.2789°N, 117.4537°W)
Time: 00:50:21
(UTC+00:00)

SPOT 1/Viking Rocket - Pass Details

Date: 14 July 2020
Orbit: 778 x 793 km, 98.5° (Epoch: 12 August)

Event Time Altitude Azimuth Distance (km) Brightness Sun altitude
Exits shadow 05:07:05 47° 140° (SE) 1,031 3.7 -21.2°
Maximum altitude 05:08:30 69° 75° (ENE) 836 3.5 -21.4°
Drops below altitude 10° 05:13:39 10° 353° (N) 2,348 6.8 -22.1°
Sets 05:15:59 0° 351° (N) 3,283 7.7 -22.4°
